,,Stat6,,Stat2,,Stat8,,Stat9,,Stat10,,Wind1,,Wind1,
time,status,PA1M_AVG,status,PR1M_SUM,status,RH1M_AVG,status,SR1M_AVG,status,TA1M_AVG,status,W1dAve1m,status,W1sAve1m,
2007-11-08, 00:00:00,VALID,916.303,VALID,0,VALID,100,VALID,-0.118866,VALID,19.018,VALID,56,VALID,0.56436,
2007-11-08, 00:01:00,VALID,916.277,VALID,0,VALID,100,VALID,-0.152827,VALID,19.008,VALID,56,VALID,0.192708,
2007-11-08, 00:02:00,VALID,916.25,VALID,0,VALID,100,VALID,-0.135847,VALID,18.9921,VALID,56,VALID,0.773983,
2007-11-08, 00:03:00,VALID,916.242,VALID,0,VALID,100,VALID,-0.135847,VALID,18.9921,VALID,56,VALID,0.727515,
2007-11-08, 00:04:00,VALID,916.224,VALID,0,VALID,100,VALID,-0.152827,VALID,18.9888,VALID,56,VALID,0.501999,
2007-11-08, 00:05:00,VALID,916.195,VALID,0,VALID,100,VALID,-0.135847,VALID,18.9921,VALID,57,VALID,0.731105,
2007-11-08, 00:06:00,VALID,916.194,VALID,0,VALID,100,VALID,-0.101885,VALID,18.9786,VALID,55,VALID,1.12227,
2007-11-08, 00:07:00,VALID,916.167,VALID,0,VALID,100,VALID,-0.101885,VALID,18.9953,VALID,48,VALID,1.09785,
2007-11-08, 00:08:00,VALID,916.155,VALID,0,VALID,100,VALID,-0.118866,VALID,18.9918,VALID,53,VALID,1.09737,
2007-11-08, 00:09:00,VALID,916.128,VALID,0,VALID,100,VALID,-0.152827,VALID,18.9886,VALID,41,VALID,1.16611,
2007-11-08, 00:10:00,VALID,916.109,VALID,0,VALID,100,VALID,-0.118866,VALID,18.9823,VALID,56,VALID,1.15092,
2007-11-08, 00:11:00,VALID,916.093,VALID,0,VALID,100,VALID,-0.118866,VALID,18.9921,VALID,53,VALID,1.10976,
2007-11-08, 00:12:00,VALID,916.07,VALID,0,VALID,100,VALID,-0.0849042,VALID,18.9881,VALID,67,VALID,0.725836,
2007-11-08, 00:13:00,VALID,916.061,VALID,0,VALID,100,VALID,-0.101885,VALID,18.9913,VALID,45,VALID,0.737282,
2007-11-08, 00:14:00,VALID,916.026,VALID,0,VALID,100,VALID,-0.135847,VALID,18.9716,VALID,20,VALID,1.06996,
2007-11-08, 00:15:00,VALID,916.01,VALID,0,VALID,100,VALID,-0.101885,VALID,18.9527,VALID,351,VALID,0.599085,
2007-11-08, 00:16:00,VALID,915.998,VALID,0,VALID,100,VALID,-0.135847,VALID,18.9626,VALID,48,VALID,0.543857,
2007-11-08, 00:17:00,VALID,915.992,VALID,0,VALID,100,VALID,-0.118866,VALID,18.9913,VALID,50,VALID,0.880451,
2007-11-08, 00:18:00,VALID,915.993,VALID,0,VALID,100,VALID,-0.118866,VALID,18.9756,VALID,31,VALID,0.835598,
2007-11-08, 00:19:00,VALID,915.989,VALID,0,VALID,100,VALID,-0.118866,VALID,18.9756,VALID,54,VALID,0.807049,
2007-11-08, 00:20:00,VALID,915.989,VALID,0,VALID,100,VALID,-0.118866,VALID,18.9654,VALID,41,VALID,0.778011,
2007-11-08, 00:21:00,VALID,915.998,VALID,0,VALID,100,VALID,-0.101885,VALID,18.9629,VALID,44,VALID,0.596528,
2007-11-08, 00:22:00,VALID,915.988,VALID,0,VALID,100,VALID,-0.101885,VALID,18.9596,VALID,55,VALID,0.99721,
2007-11-08, 00:23:00,VALID,915.979,VALID,0,VALID,100,VALID,-0.135847,VALID,18.9594,VALID,52,VALID,1.17228,
2007-11-08, 00:24:00,VALID,915.979,VALID,0,VALID,100,VALID,-0.118866,VALID,18.9524,VALID,41,VALID,0.960778,
2007-11-08, 00:25:00,VALID,915.956,VALID,0,VALID,100,VALID,-0.101885,VALID,18.9494,VALID,32,VALID,0.66806,
2007-11-08, 00:26:00,VALID,915.952,VALID,0,VALID,100,VALID,-0.118866,VALID,18.9434,VALID,67,VALID,1.04399,
2007-11-08, 00:27:00,VALID,915.936,VALID,0,VALID,100,VALID,-0.0679233,VALID,18.9584,VALID,57,VALID,0.886533,
2007-11-08, 00:28:00,VALID,915.928,VALID,0,VALID,100,VALID,-0.0169808,VALID,18.9709,VALID,50,VALID,0.943164,
2007-11-08, 00:29:00,VALID,915.919,VALID,0,VALID,100,VALID,0,VALID,18.9809,VALID,46,VALID,0.439499,
2007-11-08, 00:30:00,VALID,915.915,VALID,0,VALID,100,VALID,0,VALID,18.9605,VALID,50,VALID,0.776634,
2007-11-08, 00:31:00,VALID,915.893,VALID,0,VALID,100,VALID,-0.0339617,VALID,18.9707,VALID,53,VALID,0.915737,
2007-11-08, 00:32:00,VALID,915.868,VALID,0,VALID,100,VALID,-0.0339617,VALID,18.9739,VALID,67,VALID,0.876674,
2007-11-08, 00:33:00,VALID,915.855,VALID,0,VALID,100,VALID,-0.0169808,VALID,18.9939,VALID,61,VALID,1.0375,
2007-11-08, 00:34:00,VALID,915.835,VALID,0,VALID,100,VALID,-0.0339617,VALID,18.9901,VALID,40,VALID,0.667151,
2007-11-08, 00:35:00,VALID,915.823,VALID,0,VALID,100,VALID,0,VALID,18.9906,VALID,66,VALID,0.500182,
2007-11-08, 00:36:00,VALID,915.805,VALID,0,VALID,100,VALID,-0.0169808,VALID,18.9871,VALID,59,VALID,0.596528,
2007-11-08, 00:37:00,VALID,915.78,VALID,0,VALID,100,VALID,0,VALID,18.9909,VALID,42,VALID,0.772166,
2007-11-08, 00:38:00,VALID,915.757,VALID,0,VALID,100,VALID,0,VALID,18.9774,VALID,54,VALID,1.26391,
2007-11-08, 00:39:00,VALID,915.749,VALID,0,VALID,100,VALID,0,VALID,18.9744,VALID,60,VALID,1.09494,
2007-11-08, 00:40:00,VALID,915.733,VALID,0,VALID,100,VALID,-0.0169808,VALID,18.9644,VALID,51,VALID,0.821915,
2007-11-08, 00:41:00,VALID,915.72,VALID,0,VALID,100,VALID,-0.0339617,VALID,18.9679,VALID,41,VALID,0.823289,
2007-11-08, 00:42:00,VALID,915.696,VALID,0,VALID,100,VALID,-0.0169808,VALID,18.9679,VALID,62,VALID,1.13739,
2007-11-08, 00:43:00,VALID,915.671,VALID,0,VALID,100,VALID,-0.0339617,VALID,18.9779,VALID,62,VALID,0.837326,
2007-11-08, 00:44:00,VALID,915.665,VALID,0,VALID,100,VALID,-0.0169808,VALID,18.9774,VALID,54,VALID,0.792225,
2007-11-08, 00:45:00,VALID,915.648,VALID,0,VALID,100,VALID,0,VALID,18.9841,VALID,65,VALID,0.735828,
2007-11-08, 00:46:00,VALID,915.649,VALID,0,VALID,100,VALID,-0.0169808,VALID,18.9809,VALID,25,VALID,1.05339,
2007-11-08, 00:47:00,VALID,915.63,VALID,0,VALID,100,VALID,0,VALID,18.9742,VALID,56,VALID,0.804116,
2007-11-08, 00:48:00,VALID,915.628,VALID,0,VALID,100,VALID,-0.0339617,VALID,18.9742,VALID,51,VALID,0.810811,
2007-11-08, 00:49:00,VALID,915.615,VALID,0,VALID,100,VALID,0,VALID,18.9742,VALID,71,VALID,0.600632,
2007-11-08, 00:50:00,VALID,915.594,VALID,0,VALID,100,VALID,-0.0339617,VALID,18.9709,VALID,46,VALID,0.765278,
2007-11-08, 00:51:00,VALID,915.6,VALID,0,VALID,100,VALID,-0.0339617,VALID,18.9906,VALID,50,VALID,0.995094,
2007-11-08, 00:52:00,VALID,915.577,VALID,0,VALID,100,VALID,-0.0169808,VALID,18.9871,VALID,45,VALID,0.762109,
2007-11-08, 00:53:00,VALID,915.565,VALID,0,VALID,100,VALID,0,VALID,18.9939,VALID,59,VALID,1.08434,
2007-11-08, 00:54:00,VALID,915.537,VALID,0,VALID,100,VALID,0,VALID,19.0006,VALID,65,VALID,1.17702,
2007-11-08, 00:55:00,VALID,915.522,VALID,0,VALID,100,VALID,0,VALID,19.0036,VALID,67,VALID,1.3019,
2007-11-08, 00:56:00,VALID,915.494,VALID,0,VALID,100,VALID,-0.0339617,VALID,19.0004,VALID,51,VALID,0.856105,
2007-11-08, 00:57:00,VALID,915.477,VALID,0,VALID,100,VALID,-0.0169808,VALID,18.9841,VALID,41,VALID,0.494097,
2007-11-08, 00:58:00,VALID,915.463,VALID,0,VALID,100,VALID,0,VALID,18.9737,VALID,53,VALID,0.872507,
2007-11-08, 00:59:00,VALID,915.438,VALID,0,VALID,100,VALID,0,VALID,18.9837,VALID,65,VALID,0.786882,
2007-11-08, 01:00:00,VALID,915.425,VALID,0,VALID,100,VALID,0,VALID,18.9744,VALID,64,VALID,0.773237,
2007-11-08, 01:01:00,VALID,915.419,VALID,0,VALID,100,VALID,-0.0169808,VALID,18.9712,VALID,42,VALID,0.500191,
2007-11-08, 01:02:00,VALID,915.406,VALID,0,VALID,100,VALID,0,VALID,18.9677,VALID,46,VALID,0.42702,
2007-11-08, 01:03:00,VALID,915.398,VALID,0,VALID,100,VALID,-0.0169808,VALID,18.9609,VALID,43,VALID,0.951823,
2007-11-08, 01:04:00,VALID,915.365,VALID,0,VALID,100,VALID,-0.0169808,VALID,18.9607,VALID,49,VALID,0.578497,
2007-11-08, 01:05:00,VALID,915.331,VALID,0,VALID,100,VALID,0,VALID,18.9642,VALID,60,VALID,0.612571,
2007-11-08, 01:06:00,VALID,915.32,VALID,0,VALID,100,VALID,0,VALID,18.9772,VALID,61,VALID,0.450838,
2007-11-08, 01:07:00,VALID,915.308,VALID,0,VALID,100,VALID,0,VALID,18.9869,VALID,66,VALID,0.656072,
2007-11-08, 01:08:00,VALID,915.281,VALID,0,VALID,100,VALID,0,VALID,18.9999,VALID,62,VALID,0.809338,
2007-11-08, 01:09:00,VALID,915.273,VALID,0,VALID,100,VALID,0.0169808,VALID,18.9899,VALID,62,VALID,1.05299,
2007-11-08, 01:10:00,VALID,915.267,VALID,0,VALID,100,VALID,-0.0169808,VALID,19.0034,VALID,67,VALID,0.645894,
2007-11-08, 01:11:00,VALID,915.249,VALID,0,VALID,100,VALID,0,VALID,19.0098,VALID,67,VALID,0.733803,
2007-11-08, 01:12:00,VALID,915.237,VALID,0,VALID,100,VALID,-0.0169808,VALID,19.0131,VALID,64,VALID,1.09641,
2007-11-08, 01:13:00,VALID,915.223,VALID,0,VALID,100,VALID,0,VALID,18.9901,VALID,62,VALID,1.21261,
2007-11-08, 01:14:00,VALID,915.214,VALID,0,VALID,100,VALID,0,VALID,18.9732,VALID,61,VALID,1.06994,
2007-11-08, 01:15:00,VALID,915.193,VALID,0,VALID,100,VALID,-0.0339617,VALID,18.9677,VALID,51,VALID,0.996995,
2007-11-08, 01:16:00,VALID,915.168,VALID,0,VALID,100,VALID,0,VALID,18.9575,VALID,66,VALID,1.04707,
2007-11-08, 01:17:00,VALID,915.148,VALID,0,VALID,100,VALID,-0.0169808,VALID,18.9644,VALID,65,VALID,1.49273,
2007-11-08, 01:18:00,VALID,915.128,VALID,0,VALID,100,VALID,-0.0169808,VALID,18.9839,VALID,64,VALID,1.256,
2007-11-08, 01:19:00,VALID,915.111,VALID,0,VALID,100,VALID,0,VALID,18.9936,VALID,64,VALID,0.642805,
2007-11-08, 01:20:00,VALID,915.095,VALID,0,VALID,100,VALID,-0.0169808,VALID,18.9969,VALID,67,VALID,0.96946,
2007-11-08, 01:21:00,VALID,915.086,VALID,0,VALID,100,VALID,-0.0339617,VALID,19.0004,VALID,69,VALID,1.06747,
2007-11-08, 01:22:00,VALID,915.076,VALID,0,VALID,100,VALID,-0.0679233,VALID,19.0004,VALID,74,VALID,0.572443,
2007-11-08, 01:23:00,VALID,915.057,VALID,0,VALID,100,VALID,-0.0339617,VALID,18.9804,VALID,71,VALID,0.71548,
2007-11-08, 01:24:00,VALID,915.052,VALID,0,VALID,100,VALID,0,VALID,18.9674,VALID,73,VALID,0.888207,
2007-11-08, 01:25:00,VALID,915.04,VALID,0,VALID,100,VALID,-0.0339617,VALID,18.9837,VALID,73,VALID,1.24505,
2007-11-08, 01:26:00,VALID,915.006,VALID,0,VALID,100,VALID,-0.0169808,VALID,18.9964,VALID,81,VALID,1.34847,
2007-11-08, 01:27:00,VALID,914.978,VALID,0,VALID,100,VALID,0,VALID,18.9802,VALID,74,VALID,0.953683,
2007-11-08, 01:28:00,VALID,914.962,VALID,0,VALID,100,VALID,-0.0169808,VALID,18.9969,VALID,72,VALID,1.26049,
2007-11-08, 01:29:00,VALID,914.937,VALID,0,VALID,100,VALID,0,VALID,18.9931,VALID,76,VALID,1.06504,
2007-11-08, 01:30:00,VALID,914.908,VALID,0,VALID,100,VALID,0.0169808,VALID,19.0034,VALID,70,VALID,1.17987,
2007-11-08, 01:31:00,VALID,914.904,VALID,0,VALID,100,VALID,0,VALID,18.9832,VALID,71,VALID,1.05069,
2007-11-08, 01:32:00,VALID,914.882,VALID,0,VALID,100,VALID,-0.0339617,VALID,18.9869,VALID,66,VALID,0.846912,
2007-11-08, 01:33:00,VALID,914.864,VALID,0,VALID,100,VALID,0.0169808,VALID,18.9806,VALID,72,VALID,0.894717,
2007-11-08, 01:34:00,VALID,914.824,VALID,0,VALID,100,VALID,0,VALID,18.9742,VALID,72,VALID,1.28735,
2007-11-08, 01:35:00,VALID,914.813,VALID,0,VALID,100,VALID,-0.0339617,VALID,18.9776,VALID,67,VALID,1.47475,
2007-11-08, 01:36:00,VALID,914.782,VALID,0,VALID,100,VALID,-0.0169808,VALID,18.9612,VALID,58,VALID,1.00918,
2007-11-08, 01:37:00,VALID,914.747,VALID,0,VALID,100,VALID,0,VALID,18.9609,VALID,48,VALID,1.35298,
2007-11-08, 01:38:00,VALID,914.73,VALID,0,VALID,100,VALID,0,VALID,18.9515,VALID,57,VALID,1.21332,
2007-11-08, 01:39:00,VALID,914.715,VALID,0,VALID,100,VALID,0,VALID,18.951,VALID,75,VALID,1.28924,
2007-11-08, 01:40:00,VALID,914.71,VALID,0,VALID,100,VALID,-0.0169808,VALID,18.9577,VALID,58,VALID,0.911337,
2007-11-08, 01:41:00,VALID,914.699,VALID,0,VALID,100,VALID,0,VALID,18.9579,VALID,63,VALID,0.962153,
2007-11-08, 01:42:00,VALID,914.696,VALID,0,VALID,100,VALID,-0.0339617,VALID,18.9774,VALID,56,VALID,1.10175,
2007-11-08, 01:43:00,VALID,914.672,VALID,0,VALID,100,VALID,-0.0169808,VALID,18.9579,VALID,39,VALID,0.7766,
2007-11-08, 01:44:00,VALID,914.658,VALID,0,VALID,100,VALID,-0.0169808,VALID,18.9742,VALID,56,VALID,1.11739,
2007-11-08, 01:45:00,VALID,914.626,VALID,0,VALID,100,VALID,0,VALID,18.9609,VALID,60,VALID,0.651344,
2007-11-08, 01:46:00,VALID,914.605,VALID,0,VALID,100,VALID,-0.0169808,VALID,18.9473,VALID,67,VALID,1.11052,
2007-11-08, 01:47:00,VALID,914.575,VALID,0,VALID,100,VALID,0,VALID,18.9739,VALID,81,VALID,0.93314,
2007-11-08, 01:48:00,VALID,914.548,VALID,0,VALID,100,VALID,-0.0169808,VALID,18.9804,VALID,69,VALID,0.334549,
2007-11-08, 01:49:00,VALID,914.527,VALID,0,VALID,100,VALID,-0.0339617,VALID,18.9772,VALID,66,VALID,0.604911,
2007-11-08, 01:50:00,VALID,914.508,VALID,0,VALID,100,VALID,-0.0169808,VALID,18.9804,VALID,70,VALID,0.87718,
2007-11-08, 01:51:00,VALID,914.481,VALID,0,VALID,100,VALID,-0.0339617,VALID,18.9839,VALID,70,VALID,1.0148,
2007-11-08, 01:52:00,VALID,914.447,VALID,0,VALID,100,VALID,-0.0169808,VALID,18.9742,VALID,73,VALID,1.99766,
2007-11-08, 01:53:00,VALID,914.425,VALID,0,VALID,100,VALID,-0.0169808,VALID,18.9677,VALID,67,VALID,1.59947,
2007-11-08, 01:54:00,VALID,914.425,VALID,0,VALID,100,VALID,0,VALID,18.9549,VALID,62,VALID,1.49931,
2007-11-08, 01:55:00,VALID,914.417,VALID,0,VALID,100,VALID,-0.0169808,VALID,18.9579,VALID,66,VALID,0.977134,
2007-11-08, 01:56:00,VALID,914.411,VALID,0,VALID,100,VALID,-0.0339617,VALID,18.9579,VALID,67,VALID,0.918636,
2007-11-08, 01:57:00,VALID,914.412,VALID,0,VALID,100,VALID,-0.0509425,VALID,18.9707,VALID,73,VALID,0.696875,
2007-11-08, 01:58:00,VALID,914.405,VALID,0,VALID,100,VALID,-0.0509425,VALID,18.9709,VALID,70,VALID,0.155523,
2007-11-08, 01:59:00,VALID,914.387,VALID,0,VALID,100,VALID,-0.0169808,VALID,18.9806,VALID,66,VALID,0.61101,
2007-11-08, 02:00:00,VALID,914.384,VALID,0,VALID,100,VALID,-0.0169808,VALID,18.9841,VALID,36,VALID,0.631696,
2007-11-08, 02:01:00,VALID,914.37,VALID,0,VALID,100,VALID,-0.0339617,VALID,18.9579,VALID,72,VALID,0.505145,
2007-11-08, 02:02:00,VALID,914.347,VALID,0,VALID,100,VALID,-0.0509425,VALID,18.9348,VALID,59,VALID,1.53434,
2007-11-08, 02:03:00,VALID,914.326,VALID,0,VALID,100,VALID,-0.0679233,VALID,18.932,VALID,43,VALID,1.18135,
2007-11-08, 02:04:00,VALID,914.325,VALID,0,VALID,100,VALID,-0.0169808,VALID,18.9285,VALID,56,VALID,0.693537,
2007-11-08, 02:05:00,VALID,914.299,VALID,0,VALID,100,VALID,-0.0679233,VALID,18.945,VALID,56,VALID,0.341704,
2007-11-08, 02:06:00,VALID,914.28,VALID,0,VALID,100,VALID,0,VALID,18.948,VALID,62,VALID,0.567769,
2007-11-08, 02:07:00,VALID,914.274,VALID,0,VALID,100,VALID,-0.0169808,VALID,18.9776,VALID,65,VALID,0.209449,
2007-11-08, 02:08:00,VALID,914.263,VALID,0,VALID,100,VALID,-0.0679233,VALID,18.9742,VALID,67,VALID,0.861374,
2007-11-08, 02:09:00,VALID,914.25,VALID,0,VALID,100,VALID,-0.0339617,VALID,18.9734,VALID,92,VALID,0.40997,
2007-11-08, 02:10:00,VALID,914.239,VALID,0,VALID,100,VALID,-0.0339617,VALID,18.9809,VALID,73,VALID,0.71875,
2007-11-08, 02:11:00,VALID,914.229,VALID,0,VALID,100,VALID,0,VALID,18.9767,VALID,66,VALID,0.735137,
2007-11-08, 02:12:00,VALID,914.216,VALID,0,VALID,100,VALID,-0.0169808,VALID,18.9871,VALID,71,VALID,1.13635,
2007-11-08, 02:13:00,VALID,914.197,VALID,0,VALID,100,VALID,-0.0679233,VALID,18.9679,VALID,61,VALID,1.08384,
2007-11-08, 02:14:00,VALID,914.185,VALID,0,VALID,100,VALID,-0.0339617,VALID,18.9577,VALID,66,VALID,0.995793,
2007-11-08, 02:15:00,VALID,914.174,VALID,0,VALID,100,VALID,-0.0169808,VALID,18.9677,VALID,81,VALID,1.43368,
2007-11-08, 02:16:00,VALID,914.169,VALID,0,VALID,100,VALID,-0.0169808,VALID,18.9577,VALID,69,VALID,1.39276,
2007-11-08, 02:17:00,VALID,914.169,VALID,0,VALID,100,VALID,-0.0169808,VALID,18.9677,VALID,80,VALID,1.51793,
2007-11-08, 02:18:00,VALID,914.165,VALID,0,VALID,100,VALID,0,VALID,18.957,VALID,77,VALID,1.40796,
2007-11-08, 02:19:00,VALID,914.157,VALID,0,VALID,100,VALID,-0.0169808,VALID,18.948,VALID,75,VALID,1.5657,
2007-11-08, 02:20:00,VALID,914.161,VALID,0,VALID,100,VALID,0,VALID,18.9412,VALID,67,VALID,1.61528,
2007-11-08, 02:21:00,VALID,914.167,VALID,0,VALID,100,VALID,-0.0509425,VALID,18.935,VALID,76,VALID,1.39063,
2007-11-08, 02:22:00,VALID,914.161,VALID,0,VALID,100,VALID,-0.0679233,VALID,18.9387,VALID,68,VALID,1.36701,
2007-11-08, 02:23:00,VALID,914.153,VALID,0,VALID,100,VALID,-0.0679233,VALID,18.9322,VALID,60,VALID,1.00857,
2007-11-08, 02:24:00,VALID,914.147,VALID,0,VALID,100,VALID,-0.0169808,VALID,18.9158,VALID,54,VALID,1.16578,
2007-11-08, 02:25:00,VALID,914.14,VALID,0,VALID,100,VALID,-0.0339617,VALID,18.8998,VALID,59,VALID,1.23539,
2007-11-08, 02:26:00,VALID,914.129,VALID,0,VALID,100,VALID,-0.0849042,VALID,18.8961,VALID,59,VALID,1.92076,
2007-11-08, 02:27:00,VALID,914.134,VALID,0,VALID,100,VALID,-0.0169808,VALID,18.8998,VALID,64,VALID,1.54297,
2007-11-08, 02:28:00,VALID,914.133,VALID,0,VALID,100,VALID,0,VALID,18.8896,VALID,55,VALID,1.24379,
2007-11-08, 02:29:00,VALID,914.148,VALID,0,VALID,100,VALID,-0.0339617,VALID,18.8801,VALID,60,VALID,1.11979,
2007-11-08, 02:30:00,VALID,914.138,VALID,0,VALID,100,VALID,-0.0339617,VALID,18.8833,VALID,71,VALID,1.40181,
2007-11-08, 02:31:00,VALID,914.151,VALID,0,VALID,100,VALID,-0.0339617,VALID,18.8739,VALID,61,VALID,1.24891,
2007-11-08, 02:32:00,VALID,914.148,VALID,0,VALID,100,VALID,-0.0339617,VALID,18.8671,VALID,58,VALID,1.30134,
2007-11-08, 02:33:00,VALID,914.143,VALID,0,VALID,100,VALID,-0.0169808,VALID,18.8639,VALID,45,VALID,1.3019,
2007-11-08, 02:34:00,VALID,914.129,VALID,0,VALID,100,VALID,0,VALID,18.8671,VALID,64,VALID,1.58346,
2007-11-08, 02:35:00,VALID,914.121,VALID,0,VALID,100,VALID,-0.0169808,VALID,18.8636,VALID,59,VALID,1.43501,
2007-11-08, 02:36:00,VALID,914.112,VALID,0,VALID,100,VALID,-0.0509425,VALID,18.8671,VALID,59,VALID,1.28066,
2007-11-08, 02:37:00,VALID,914.079,VALID,0,VALID,100,VALID,-0.0509425,VALID,18.8706,VALID,59,VALID,1.45533,
2007-11-08, 02:38:00,VALID,914.063,VALID,0,VALID,100,VALID,0,VALID,18.8507,VALID,58,VALID,1.19861,
2007-11-08, 02:39:00,VALID,914.035,VALID,0,VALID,100,VALID,-0.0339617,VALID,18.8539,VALID,57,VALID,1.76272,
2007-11-08, 02:40:00,VALID,914.04,VALID,0,VALID,100,VALID,-0.0339617,VALID,18.8509,VALID,51,VALID,1.55136,
2007-11-08, 02:41:00,VALID,914.031,VALID,0,VALID,100,VALID,-0.0169808,VALID,18.8412,VALID,34,VALID,0.853561,
2007-11-08, 02:42:00,VALID,914.036,VALID,0,VALID,100,VALID,0,VALID,18.8412,VALID,37,VALID,0.836128,
2007-11-08, 02:43:00,VALID,914.038,VALID,0,VALID,100,VALID,-0.0509425,VALID,18.8409,VALID,41,VALID,1.09223,
2007-11-08, 02:44:00,VALID,914.017,VALID,0,VALID,100,VALID,-0.0339617,VALID,18.8407,VALID,52,VALID,1.07298,
2007-11-08, 02:45:00,VALID,914.009,VALID,0,VALID,100,VALID,-0.0509425,VALID,18.8539,VALID,45,VALID,1.12691,
2007-11-08, 02:46:00,VALID,914.009,VALID,0,VALID,100,VALID,0,VALID,18.8477,VALID,55,VALID,1.45852,
2007-11-08, 02:47:00,VALID,914.03,VALID,0,VALID,100,VALID,-0.0169808,VALID,18.8509,VALID,63,VALID,1.36677,
2007-11-08, 02:48:00,VALID,914.027,VALID,0,VALID,100,VALID,-0.0339617,VALID,18.8509,VALID,66,VALID,1.42896,
2007-11-08, 02:49:00,VALID,914.024,VALID,0,VALID,100,VALID,-0.0169808,VALID,18.8405,VALID,52,VALID,1.53325,
2007-11-08, 02:50:00,VALID,914.012,VALID,0,VALID,100,VALID,-0.0509425,VALID,18.8509,VALID,58,VALID,1.6964,
2007-11-08, 02:51:00,VALID,914.015,VALID,0,VALID,100,VALID,-0.0339617,VALID,18.8477,VALID,43,VALID,1.4613,
2007-11-08, 02:52:00,VALID,914.002,VALID,0,VALID,100,VALID,-0.0339617,VALID,18.8372,VALID,48,VALID,1.37736,
2007-11-08, 02:53:00,VALID,913.989,VALID,0,VALID,100,VALID,-0.0169808,VALID,18.8504,VALID,54,VALID,1.48609,
2007-11-08, 02:54:00,VALID,913.966,VALID,0,VALID,100,VALID,-0.0509425,VALID,18.8539,VALID,51,VALID,1.26417,
2007-11-08, 02:55:00,VALID,913.943,VALID,0,VALID,100,VALID,-0.0339617,VALID,18.8542,VALID,52,VALID,1.13073,
2007-11-08, 02:56:00,VALID,913.934,VALID,0,VALID,100,VALID,-0.0679233,VALID,18.8574,VALID,61,VALID,1.27049,
2007-11-08, 02:57:00,VALID,913.915,VALID,0,VALID,100,VALID,0,VALID,18.8567,VALID,34,VALID,1.39769,
2007-11-08, 02:58:00,VALID,913.893,VALID,0,VALID,100,VALID,0.0509425,VALID,18.8525,VALID,57,VALID,1.32203,
2007-11-08, 02:59:00,VALID,913.87,VALID,0,VALID,100,VALID,0.0509425,VALID,18.8627,VALID,47,VALID,1.63434,
2007-11-08, 03:00:01,VALID,913.859,VALID,0,VALID,100,VALID,0.0849042,VALID,18.8492,VALID,33,VALID,1.77484,
2007-11-08, 03:01:00,VALID,913.858,VALID,0,VALID,100,VALID,0.0849042,VALID,18.853,VALID,47,VALID,1.16493,
2007-11-08, 03:02:00,VALID,913.845,VALID,0,VALID,100,VALID,0.0849042,VALID,18.8625,VALID,53,VALID,1.57048,
2007-11-08, 03:03:00,VALID,913.844,VALID,0,VALID,100,VALID,0.0339617,VALID,18.8495,VALID,42,VALID,1.46146,
2007-11-08, 03:04:00,VALID,913.85,VALID,0,VALID,100,VALID,0.0509425,VALID,18.8398,VALID,44,VALID,1.27604,
2007-11-08, 03:05:00,VALID,913.846,VALID,0,VALID,100,VALID,-0.0169808,VALID,18.8268,VALID,57,VALID,1.29141,
2007-11-08, 03:06:00,VALID,913.85,VALID,0,VALID,100,VALID,0.0169808,VALID,18.8337,VALID,50,VALID,1.09375,
2007-11-08, 03:07:00,VALID,913.856,VALID,0,VALID,100,VALID,0.0509425,VALID,18.8273,VALID,61,VALID,1.52548,
2007-11-08, 03:08:01,VALID,913.849,VALID,0,VALID,100,VALID,0,VALID,18.8175,VALID,63,VALID,1.37791,
2007-11-08, 03:09:00,VALID,913.849,VALID,0,VALID,100,VALID,0.0339617,VALID,18.8108,VALID,52,VALID,1.12464,
2007-11-08, 03:10:00,VALID,913.843,VALID,0,VALID,100,VALID,0.0679233,VALID,18.7971,VALID,43,VALID,1.17787,
2007-11-08, 03:11:00,VALID,913.859,VALID,0,VALID,100,VALID,0.0509425,VALID,18.8041,VALID,60,VALID,1.03198,
2007-11-08, 03:12:01,VALID,913.841,VALID,0,VALID,100,VALID,-0.0169808,VALID,18.802,VALID,61,VALID,1.29992,
2007-11-08, 03:13:01,VALID,913.845,VALID,0,VALID,100,VALID,-0.0339617,VALID,18.806,VALID,60,VALID,1.11124,
2007-11-08, 03:14:01,VALID,913.834,VALID,0,VALID,100,VALID,-0.0339617,VALID,18.796,VALID,52,VALID,1.08379,
2007-11-08, 03:15:00,VALID,913.833,VALID,0,VALID,100,VALID,-0.0509425,VALID,18.7863,VALID,56,VALID,1.22485,
2007-11-08, 03:16:00,VALID,913.837,VALID,0,VALID,100,VALID,-0.101885,VALID,18.7798,VALID,57,VALID,1.28354,
2007-11-08, 03:17:00,VALID,913.83,VALID,0,VALID,100,VALID,-0.0509425,VALID,18.7895,VALID,37,VALID,1.18212,
2007-11-08, 03:18:01,VALID,913.827,VALID,0,VALID,100,VALID,-0.0339617,VALID,18.783,VALID,60,VALID,0.722561,
2007-11-08, 03:19:00,VALID,913.833,VALID,0,VALID,100,VALID,-0.0679233,VALID,18.7765,VALID,59,VALID,0.370833,
2007-11-08, 03:20:00,VALID,913.836,VALID,0,VALID,100,VALID,-0.0339617,VALID,18.7724,VALID,51,VALID,0,
2007-11-08, 03:21:00,VALID,913.839,VALID,0,VALID,100,VALID,-0.0509425,VALID,18.7791,VALID,51,VALID,0,
2007-11-08, 03:22:00,VALID,913.845,VALID,0,VALID,100,VALID,-0.0849042,VALID,18.7828,VALID,61,VALID,0,
2007-11-08, 03:23:00,VALID,913.837,VALID,0,VALID,100,VALID,-0.0169808,VALID,18.7793,VALID,77,VALID,0.355183,
2007-11-08, 03:24:00,VALID,913.837,VALID,0,VALID,100,VALID,-0.0169808,VALID,18.7761,VALID,77,VALID,0.00363372,
2007-11-08, 03:25:00,VALID,913.853,VALID,0,VALID,100,VALID,-0.0509425,VALID,18.7828,VALID,77,VALID,0,
2007-11-08, 03:26:00,VALID,913.874,VALID,0,VALID,100,VALID,-0.0339617,VALID,18.7823,VALID,77,VALID,0,
2007-11-08, 03:27:00,VALID,913.876,VALID,0,VALID,100,VALID,-0.0339617,VALID,18.7925,VALID,77,VALID,0,
2007-11-08, 03:28:00,VALID,913.878,VALID,0,VALID,100,VALID,-0.0679233,VALID,18.7865,VALID,77,VALID,0,
2007-11-08, 03:29:00,VALID,913.867,VALID,0,VALID,100,VALID,-0.101885,VALID,18.7731,VALID,77,VALID,0,
2007-11-08, 03:30:01,VALID,913.875,VALID,0,VALID,100,VALID,-0.0169808,VALID,18.7631,VALID,17,VALID,0.642078,
2007-11-08, 03:31:00,VALID,913.856,VALID,0,VALID,100,VALID,-0.0509425,VALID,18.7668,VALID,356,VALID,0.158975,
2007-11-08, 03:32:00,VALID,913.849,VALID,0,VALID,100,VALID,-0.0169808,VALID,18.7701,VALID,43,VALID,0.743676,
2007-11-08, 03:33:00,VALID,913.852,VALID,0,VALID,100,VALID,0,VALID,18.7466,VALID,62,VALID,0.621652,
2007-11-08, 03:34:00,VALID,913.854,VALID,0,VALID,100,VALID,-0.0169808,VALID,18.7599,VALID,83,VALID,0.179893,
2007-11-08, 03:35:00,VALID,913.875,VALID,0,VALID,100,VALID,-0.0339617,VALID,18.7765,VALID,83,VALID,0.000585938,
2007-11-08, 03:36:00,VALID,913.869,VALID,0,VALID,100,VALID,0,VALID,18.7527,VALID,78,VALID,0.789244,
2007-11-08, 03:37:01,VALID,913.851,VALID,0,VALID,100,VALID,-0.0339617,VALID,18.7596,VALID,65,VALID,1.27539,
2007-11-08, 03:38:00,VALID,913.854,VALID,0,VALID,100,VALID,-0.0339617,VALID,18.7629,VALID,64,VALID,1.30913,
2007-11-08, 03:39:01,VALID,913.883,VALID,0,VALID,100,VALID,-0.0339617,VALID,18.7561,VALID,58,VALID,0.80888,
2007-11-08, 03:40:00,VALID,913.892,VALID,0,VALID,100,VALID,0,VALID,18.7731,VALID,61,VALID,0.168155,
2007-11-08, 03:41:00,VALID,913.902,VALID,0,VALID,100,VALID,0,VALID,18.7691,VALID,61,VALID,0.643643,
2007-11-08, 03:42:01,VALID,913.903,VALID,0,VALID,100,VALID,0,VALID,18.786,VALID,70,VALID,1.41788,